User: anonymous   Login
Location: Lafig�re
(44.4503°N, 4.0357°E)
Time: 14:22:50
(UTC+00:00)
Language:

Explorer 7 - Orbit

View from above orbital plane
View from above orbital plane
View from above satellite
View from above satellite

Ground track
Ground track

The orbit data is extracted from the following two-line orbital elements,

1 00022U 59009A   21024.71306806  .00000048  00000-0  26832-4 0  9994
2 00022  50.2835 143.7426 0138845  24.2323 336.5073 14.95388405503474
Epoch (UTC): 24 January 2021 17:06:49
Eccentricity: 0.0138845
inclination: 50.2835°
perigee height: 484 km
apogee height: 678 km
right ascension of ascending node: 143.7426°
argument of perigee: 24.2323°
revolutions per day: 14.95388405
mean anomaly at epoch: 336.5073°
orbit number at epoch: 50347

The dashed part of the orbit path shows where the satellite is in the earth's shadow,  

DLR